This demonstration page uses our WeatherBlox Daily Observations layout. Learn more.

Left ArrowRight Arrow

44.8408, -93.29828

Hourly Observations for April 26, 2019

Temp ( °F °C ) Dew Point ( °F °C ) Humidity (%) Winds ( mph kmh ) Pressure ( in mb ) Visibility ( mi km ) Precip ( " mm )
12:53 am 00:53 Clear 50 10 20 -6.7 30 30 NW 14 22 29.94 1014 10 16 0.00 0.00
1:53 am 01:53 Clear 50 10 21 -6.1 32 32 NW 15 24 29.94 1014 10 16 0.00 0.00
2:53 am 02:53 Clear 48 8.9 24 -4.4 39 39 NW 14 22 29.93 1014 10 16 0.00 0.00
3:53 am 03:53 Clear 47 8.3 27 -2.8 46 46 NW 14 22 29.94 1014 10 16 0.00 0.00
4:53 am 04:53 Clear 46 7.8 29 -1.7 51 51 NNW 17 28 29.96 1015 10 16 0.00 0.00
5:53 am 05:53 Clear 44 6.7 30 -1.1 58 58 NNW 16 26 30.00 1016 10 16 0.00 0.00
6:53 am 06:53 Sunny 43 6.1 29 -1.7 58 58 NNW 20 31 30.02 1017 10 16 0.00 0.00
7:53 am 07:53 Sunny 44 6.7 29 -1.7 55 55 NW 20 31 30.04 1017 10 16 0.00 0.00
8:53 am 08:53 Mostly Sunny 47 8.3 30 -1.1 52 52 NNW 17 28 30.04 1017 10 16 0.00 0.00
9:53 am 09:53 Mostly Sunny 49 9.4 29 -1.7 46 46 NNW 21 33 30.04 1017 10 16 0.00 0.00
10:53 am 10:53 Mostly Sunny 52 11.1 30 -1.1 43 43 NW 16 26 30.03 1017 10 16 0.00 0.00
11:53 am 11:53 Mostly Sunny 54 12.2 28 -2.2 37 37 NNW 17 28 30.03 1017 10 16 0.00 0.00
12:53 pm 12:53 Mostly Cloudy 56 13.3 28 -2.2 34 34 NNW 21 33 30.02 1017 10 16 0.00 0.00
1:53 pm 13:53 Partly Cloudy 57 13.9 26 -3.3 30 30 NW 14 22 30.00 1016 10 16 0.00 0.00
2:53 pm 14:53 Partly Cloudy 57 13.9 26 -3.3 30 30 NNW 20 31 30.00 1016 10 16 0.00 0.00
3:53 pm 15:53 Partly Cloudy 57 13.9 26 -3.3 30 30 NW 16 26 29.99 1016 10 16 0.00 0.00
4:53 pm 16:53 Partly Cloudy 58 14.4 26 -3.3 29 29 N 16 26 29.98 1015 10 16 0.00 0.00
5:53 pm 17:53 Partly Cloudy 57 13.9 24 -4.4 28 28 NW 12 19 29.97 1015 10 16 0.00 0.00
6:53 pm 18:53 Partly Cloudy 56 13.3 24 -4.4 29 29 WNW 10 17 29.96 1014 10 16 0.00 0.00
7:53 pm 19:53 Mostly Cloudy 54 12.2 24 -4.4 31 31 N 10 17 29.96 1015 10 16 0.00 0.00
8:53 pm 20:53 Mostly Cloudy 53 11.7 23 -5 31 31 N 9 15 29.97 1015 10 16 0.00 0.00
9:53 pm 21:53 Mostly Cloudy 51 10.6 23 -5 33 33 NNE 9 15 30.00 1016 10 16 0.00 0.00
10:53 pm 22:53 Mostly Cloudy 49 9.4 22 -5.6 35 35 N 7 11 29.99 1016 10 16 0.00 0.00
11:53 pm 23:53 Mostly Cloudy 49 9.4 22 -5.6 35 35 NNE 8 13 29.98 1015 10 16 0.00 0.00

Powered by AerisWeather